BCS871 ENGM-EDDP

Flight info

Callsign BCS871
Flight time 1h 27m
Altitude 32000
Route VIPPA P615 ARTOR/N0477F350 DCT NEDIK DCT SUVAL M736 MAG Z20 KENIG T959 KOJEC KOJEC1V
Aircraft B77L/H-SDE1E2E3FGHIJ2J3J4J5M1RWXY/LB1D1

Departure

Time 2026-05-03 20:15
Airport Oslo-Gardermoen International Airport (ENGM)

Arrival

Time 2026-05-03 21:42
Airport Leipzig/Halle Airport (EDDP)
Time Latitude Longitude Altitude Speed Heading
2026-05-03 20:15 60.20993 11.08817 678 ft 123 kts 196°
2026-05-03 20:15 60.19896 11.08183 995 ft 184 kts 194°
2026-05-03 20:15 60.18666 11.07551 2218 ft 183 kts 194°
2026-05-03 20:15 60.17433 11.06626 3040 ft 207 kts 214°
2026-05-03 20:16 60.16366 11.04429 3852 ft 225 kts 227°
2026-05-03 20:16 60.15444 11.01845 4946 ft 238 kts 249°
2026-05-03 20:16 60.14866 10.98653 5858 ft 258 kts 248°
2026-05-03 20:16 60.14138 10.95303 6445 ft 264 kts 246°
2026-05-03 20:17 60.13356 10.91905 7107 ft 271 kts 246°
2026-05-03 20:17 60.12558 10.88451 7684 ft 273 kts 246°
2026-05-03 20:17 60.11742 10.85012 8285 ft 273 kts 240°
2026-05-03 20:17 60.10419 10.82348 8831 ft 282 kts 210°
2026-05-03 20:18 60.08544 10.81167 9501 ft 285 kts 197°
2026-05-03 20:18 60.06596 10.80187 10093 ft 292 kts 198°
2026-05-03 20:18 60.04621 10.79162 10670 ft 296 kts 198°
2026-05-03 20:18 60.02618 10.78121 11255 ft 298 kts 198°
2026-05-03 20:19 60.00611 10.77078 11833 ft 297 kts 199°
2026-05-03 20:19 59.98616 10.76035 12426 ft 296 kts 199°
2026-05-03 20:19 59.96620 10.74996 13034 ft 296 kts 199°
2026-05-03 20:19 59.94629 10.73958 13649 ft 296 kts 199°
2026-05-03 20:20 59.92630 10.72914 14138 ft 298 kts 199°
2026-05-03 20:20 59.90619 10.71862 14638 ft 301 kts 199°
2026-05-03 20:20 59.88583 10.70797 15141 ft 303 kts 200°
2026-05-03 20:20 59.86534 10.69727 15662 ft 305 kts 200°
2026-05-03 20:21 59.84478 10.68654 16157 ft 307 kts 200°
2026-05-03 20:21 59.82402 10.67573 16680 ft 309 kts 200°
2026-05-03 20:21 59.80321 10.66490 17214 ft 310 kts 200°
2026-05-03 20:21 59.78229 10.65403 17756 ft 312 kts 201°
2026-05-03 20:22 59.76124 10.64310 18273 ft 313 kts 201°
2026-05-03 20:22 59.74009 10.63212 18743 ft 315 kts 201°
2026-05-03 20:22 59.71884 10.62111 19246 ft 317 kts 201°
2026-05-03 20:22 59.69744 10.61004 19720 ft 319 kts 201°
2026-05-03 20:23 59.67597 10.59895 20236 ft 321 kts 201°
2026-05-03 20:23 59.65458 10.58793 20739 ft 322 kts 201°
2026-05-03 20:23 59.63257 10.57659 21256 ft 324 kts 201°
2026-05-03 20:23 59.61069 10.56537 21792 ft 325 kts 201°
2026-05-03 20:24 59.58871 10.55405 22332 ft 328 kts 201°
2026-05-03 20:24 59.56682 10.54280 22885 ft 331 kts 201°
2026-05-03 20:24 59.54439 10.53130 23434 ft 333 kts 201°
2026-05-03 20:24 59.52190 10.51977 23912 ft 335 kts 201°
2026-05-03 20:25 59.49922 10.50821 24394 ft 337 kts 201°
2026-05-03 20:25 59.47650 10.49664 24889 ft 338 kts 201°
2026-05-03 20:25 59.45381 10.48509 25382 ft 338 kts 201°
2026-05-03 20:25 59.43100 10.47351 25865 ft 338 kts 201°
2026-05-03 20:26 59.40831 10.46199 26385 ft 337 kts 202°
2026-05-03 20:26 59.38562 10.45049 26902 ft 336 kts 202°
2026-05-03 20:26 59.36302 10.43906 27429 ft 334 kts 202°
2026-05-03 20:26 59.34055 10.42770 27948 ft 333 kts 202°
2026-05-03 20:27 59.31780 10.41858 28463 ft 338 kts 194°
2026-05-03 20:27 59.29408 10.41711 29015 ft 344 kts 188°
2026-05-03 20:27 59.27015 10.42056 29565 ft 348 kts 182°
2026-05-03 20:27 59.24620 10.42886 30104 ft 348 kts 180°
2026-05-03 20:28 59.22254 10.43814 30558 ft 346 kts 180°
2026-05-03 20:28 59.19911 10.44762 31042 ft 342 kts 180°
2026-05-03 20:28 59.17595 10.45701 31484 ft 339 kts 180°
2026-05-03 20:28 59.15289 10.46624 31776 ft 340 kts 180°
2026-05-03 20:29 59.12939 10.47541 31806 ft 348 kts 180°
2026-05-03 20:29 59.08063 10.49422 31846 ft 366 kts 179°
2026-05-03 20:30 59.02928 10.51399 31846 ft 385 kts 179°
2026-05-03 20:30 58.97587 10.53458 31852 ft 402 kts 178°
2026-05-03 20:31 58.91982 10.55618 31851 ft 419 kts 178°
2026-05-03 20:31 58.86163 10.57855 31844 ft 433 kts 178°
2026-05-03 20:32 58.80170 10.60152 31842 ft 445 kts 177°
2026-05-03 20:32 58.74040 10.62495 31837 ft 452 kts 177°
2026-05-03 20:33 58.67881 10.64848 31828 ft 451 kts 177°
2026-05-03 20:33 58.61728 10.67183 31824 ft 450 kts 177°
2026-05-03 20:34 58.55579 10.69501 31829 ft 450 kts 177°
2026-05-03 20:34 58.49440 10.71803 31832 ft 450 kts 177°
2026-05-03 20:35 58.43283 10.74103 31835 ft 451 kts 177°
2026-05-03 20:35 58.37122 10.76397 31850 ft 451 kts 177°
2026-05-03 20:36 58.30994 10.78672 31842 ft 452 kts 177°
2026-05-03 20:36 58.24815 10.80958 31840 ft 453 kts 177°
2026-05-03 20:37 58.18621 10.83241 31843 ft 453 kts 177°
2026-05-03 20:37 58.12433 10.85514 31846 ft 453 kts 177°
2026-05-03 20:38 58.06237 10.87782 31843 ft 453 kts 176°
2026-05-03 20:38 58.00050 10.90039 31841 ft 453 kts 176°
2026-05-03 20:39 57.93862 10.92288 31840 ft 453 kts 176°
2026-05-03 20:39 57.87675 10.94529 31848 ft 452 kts 176°
2026-05-03 20:40 57.81493 10.96760 31850 ft 452 kts 176°
2026-05-03 20:40 57.75317 10.98981 31851 ft 452 kts 176°
2026-05-03 20:41 57.69172 11.01182 31854 ft 452 kts 176°
2026-05-03 20:41 57.62991 11.03390 31856 ft 452 kts 176°
2026-05-03 20:42 57.56809 11.05590 31856 ft 452 kts 176°
2026-05-03 20:42 57.50619 11.07785 31855 ft 453 kts 176°
2026-05-03 20:43 57.44431 11.09972 31852 ft 453 kts 176°
2026-05-03 20:43 57.38241 11.12153 31855 ft 453 kts 176°
2026-05-03 20:44 57.32047 11.14327 31853 ft 453 kts 176°
2026-05-03 20:44 57.25857 11.16492 31854 ft 453 kts 176°
2026-05-03 20:45 57.19656 11.18653 31859 ft 453 kts 176°
2026-05-03 20:45 57.13460 11.20806 31861 ft 453 kts 176°
2026-05-03 20:46 57.07264 11.22952 31868 ft 453 kts 175°
2026-05-03 20:46 57.01057 11.25093 31860 ft 453 kts 175°
2026-05-03 20:47 56.94853 11.27227 31853 ft 453 kts 175°
2026-05-03 20:47 56.88653 11.29352 31855 ft 453 kts 175°
2026-05-03 20:48 56.82451 11.31471 31857 ft 453 kts 175°
2026-05-03 20:48 56.76253 11.33581 31856 ft 453 kts 175°
2026-05-03 20:49 56.70046 11.35687 31854 ft 454 kts 175°
2026-05-03 20:49 56.63835 11.37787 31856 ft 454 kts 175°
2026-05-03 20:50 56.57671 11.39865 31855 ft 454 kts 175°
2026-05-03 20:50 56.51456 11.41953 31856 ft 454 kts 175°
2026-05-03 20:51 56.45233 11.44036 31856 ft 455 kts 175°
2026-05-03 20:51 56.39005 11.46113 31857 ft 455 kts 175°
2026-05-03 20:52 56.33826 11.47835 31852 ft 456 kts 175°
2026-05-03 20:52 56.27589 11.49904 31849 ft 456 kts 175°
2026-05-03 20:53 56.21348 11.51967 31851 ft 456 kts 175°
2026-05-03 20:53 56.15099 11.54026 31851 ft 457 kts 174°
2026-05-03 20:54 56.08840 11.56081 31847 ft 457 kts 174°
2026-05-03 20:54 55.99447 11.59153 31845 ft 458 kts 174°
2026-05-03 20:55 55.93174 11.61196 31844 ft 458 kts 174°
2026-05-03 20:55 55.86896 11.63234 31834 ft 459 kts 174°
2026-05-03 20:56 55.80604 11.65269 31844 ft 460 kts 174°
2026-05-03 20:56 55.74301 11.67302 31841 ft 461 kts 174°
2026-05-03 20:57 55.67988 11.69331 31840 ft 461 kts 174°
2026-05-03 20:57 55.61666 11.71357 31844 ft 462 kts 174°
2026-05-03 20:58 55.55373 11.73367 31845 ft 463 kts 174°
2026-05-03 20:58 55.49030 11.75385 31846 ft 464 kts 174°
2026-05-03 20:59 55.42674 11.77402 31841 ft 464 kts 174°
2026-05-03 20:59 55.36309 11.79415 31839 ft 465 kts 174°
2026-05-03 21:00 55.31010 11.81085 31833 ft 465 kts 174°
2026-05-03 21:00 55.23548 11.83430 31829 ft 466 kts 174°
2026-05-03 21:01 55.17161 11.85430 31834 ft 467 kts 174°
2026-05-03 21:01 55.10758 11.87429 31826 ft 467 kts 174°
2026-05-03 21:02 55.04355 11.89421 31825 ft 468 kts 174°
2026-05-03 21:02 54.97946 11.91408 31828 ft 468 kts 174°
2026-05-03 21:03 54.91579 11.93376 31825 ft 468 kts 174°
2026-05-03 21:03 54.85172 11.95350 31821 ft 468 kts 174°
2026-05-03 21:04 54.78772 11.97316 31821 ft 468 kts 174°
2026-05-03 21:04 54.72352 11.99281 31822 ft 468 kts 174°
2026-05-03 21:05 54.65948 12.01236 31819 ft 467 kts 174°
2026-05-03 21:05 54.59542 12.03185 31821 ft 467 kts 174°
2026-05-03 21:06 54.53142 12.05126 31824 ft 467 kts 174°
2026-05-03 21:06 54.46727 12.06477 31829 ft 462 kts 182°
2026-05-03 21:07 54.40321 12.06220 31834 ft 460 kts 185°
2026-05-03 21:07 54.33916 12.05893 31830 ft 461 kts 185°
2026-05-03 21:08 54.27504 12.05608 31834 ft 461 kts 185°
2026-05-03 21:08 54.21087 12.05341 31838 ft 461 kts 185°
2026-05-03 21:09 54.14662 12.05077 31847 ft 462 kts 185°
2026-05-03 21:09 54.08233 12.04812 31852 ft 462 kts 185°
2026-05-03 21:10 54.01805 12.04546 31865 ft 462 kts 185°
2026-05-03 21:10 53.95364 12.04281 31860 ft 463 kts 185°
2026-05-03 21:11 53.88926 12.04018 31858 ft 463 kts 185°
2026-05-03 21:11 53.82481 12.03754 31852 ft 463 kts 184°
2026-05-03 21:12 53.76109 12.03495 31779 ft 460 kts 184°
2026-05-03 21:12 53.72912 12.03366 31431 ft 458 kts 184°
2026-05-03 21:12 53.69694 12.03236 31168 ft 453 kts 184°
2026-05-03 21:13 53.66556 12.03111 30922 ft 450 kts 184°
2026-05-03 21:13 53.63475 12.02986 30676 ft 448 kts 184°
2026-05-03 21:13 53.60366 12.02860 30435 ft 447 kts 184°
2026-05-03 21:13 53.57256 12.02733 30193 ft 446 kts 184°
2026-05-03 21:14 53.54160 12.02608 29948 ft 445 kts 184°
2026-05-03 21:14 53.51071 12.02483 29671 ft 444 kts 184°
2026-05-03 21:14 53.47984 12.02359 29381 ft 443 kts 184°
2026-05-03 21:14 53.44905 12.02235 29106 ft 442 kts 184°
2026-05-03 21:15 53.41836 12.02113 28828 ft 440 kts 184°
2026-05-03 21:15 53.38784 12.01991 28559 ft 439 kts 184°
2026-05-03 21:15 53.35735 12.01869 28283 ft 437 kts 184°
2026-05-03 21:15 53.32698 12.01748 28024 ft 436 kts 184°
2026-05-03 21:16 53.29669 12.01627 27750 ft 434 kts 184°
2026-05-03 21:16 53.26654 12.01507 27486 ft 433 kts 184°
2026-05-03 21:16 53.23654 12.01388 27227 ft 431 kts 184°
2026-05-03 21:16 53.20657 12.01269 26960 ft 430 kts 184°
2026-05-03 21:17 53.17664 12.01150 26704 ft 428 kts 184°
2026-05-03 21:17 53.15689 12.01072 26538 ft 427 kts 184°
2026-05-03 21:17 53.11729 12.00916 26208 ft 425 kts 184°
2026-05-03 21:17 53.08774 12.00799 25953 ft 424 kts 184°
2026-05-03 21:18 53.05830 12.00683 25699 ft 423 kts 184°
2026-05-03 21:18 53.02896 12.00567 25456 ft 421 kts 184°
2026-05-03 21:18 52.99964 12.00452 25214 ft 420 kts 184°
2026-05-03 21:18 52.97073 12.00340 24949 ft 412 kts 184°
2026-05-03 21:19 52.94237 12.00230 24702 ft 405 kts 184°
2026-05-03 21:19 52.91438 12.00120 24458 ft 401 kts 184°
2026-05-03 21:19 52.88646 12.00009 24225 ft 399 kts 184°
2026-05-03 21:19 52.85873 11.99900 23993 ft 398 kts 184°
2026-05-03 21:20 52.83107 11.99792 23765 ft 397 kts 185°
2026-05-03 21:20 52.80398 11.99561 23529 ft 394 kts 189°
2026-05-03 21:20 52.77674 11.98799 23256 ft 391 kts 195°
2026-05-03 21:20 52.75085 11.97692 22980 ft 388 kts 200°
2026-05-03 21:21 52.72560 11.96173 22726 ft 386 kts 203°
2026-05-03 21:21 52.70058 11.94584 22464 ft 385 kts 203°
2026-05-03 21:21 52.67556 11.93013 22192 ft 384 kts 203°
2026-05-03 21:21 52.65040 11.91521 21926 ft 385 kts 199°
2026-05-03 21:22 52.62445 11.90435 21666 ft 385 kts 194°
2026-05-03 21:22 52.59797 11.89781 21406 ft 386 kts 189°
2026-05-03 21:22 52.57117 11.89334 21148 ft 385 kts 188°
2026-05-03 21:22 52.54475 11.88904 21084 ft 379 kts 188°
2026-05-03 21:23 52.51854 11.88471 21030 ft 378 kts 189°
2026-05-03 21:23 52.49233 11.88139 21023 ft 379 kts 182°
2026-05-03 21:23 52.46624 11.88792 21014 ft 381 kts 167°
2026-05-03 21:23 52.44172 11.90445 21024 ft 383 kts 155°
2026-05-03 21:24 52.41904 11.92723 21028 ft 384 kts 152°
2026-05-03 21:24 52.39642 11.95086 21027 ft 387 kts 152°
2026-05-03 21:24 52.37363 11.97468 21033 ft 389 kts 152°
2026-05-03 21:24 52.35075 11.99852 20974 ft 390 kts 152°
2026-05-03 21:25 52.32798 12.02216 20422 ft 384 kts 152°
2026-05-03 21:25 52.30584 12.04507 19967 ft 378 kts 152°
2026-05-03 21:25 52.28344 12.06815 19476 ft 374 kts 152°
2026-05-03 21:25 52.26175 12.09041 19009 ft 372 kts 152°
2026-05-03 21:26 52.23989 12.11278 18538 ft 370 kts 152°
2026-05-03 21:26 52.21788 12.13527 18037 ft 368 kts 152°
2026-05-03 21:26 52.19654 12.15705 17507 ft 365 kts 152°
2026-05-03 21:26 52.17507 12.17893 16993 ft 363 kts 152°
2026-05-03 21:27 52.15383 12.20055 16476 ft 360 kts 153°
2026-05-03 21:27 52.13267 12.22208 15971 ft 356 kts 153°
2026-05-03 21:27 52.11175 12.24334 15472 ft 352 kts 153°
2026-05-03 21:27 52.09108 12.26432 14981 ft 348 kts 153°
2026-05-03 21:28 52.07066 12.28502 14484 ft 344 kts 153°
2026-05-03 21:28 52.05057 12.30538 14016 ft 336 kts 153°
2026-05-03 21:28 52.03117 12.32505 13559 ft 322 kts 153°
2026-05-03 21:28 52.01256 12.34392 13137 ft 308 kts 153°
2026-05-03 21:29 51.99470 12.36197 12716 ft 298 kts 153°
2026-05-03 21:29 51.97724 12.37957 12333 ft 297 kts 153°
2026-05-03 21:29 51.95949 12.39735 11975 ft 302 kts 153°
2026-05-03 21:29 51.94156 12.41533 11605 ft 301 kts 153°
2026-05-03 21:30 51.92397 12.43302 11213 ft 293 kts 153°
2026-05-03 21:30 51.90689 12.45021 10836 ft 287 kts 153°
2026-05-03 21:30 51.89001 12.46716 10461 ft 283 kts 153°
2026-05-03 21:30 51.87340 12.48381 10094 ft 279 kts 153°
2026-05-03 21:31 51.85696 12.50027 9727 ft 276 kts 153°
2026-05-03 21:31 51.84064 12.51660 9339 ft 275 kts 153°
2026-05-03 21:31 51.82427 12.53294 8968 ft 279 kts 152°
2026-05-03 21:31 51.80751 12.54909 8572 ft 280 kts 159°
2026-05-03 21:32 51.78884 12.55515 8173 ft 273 kts 181°
2026-05-03 21:32 51.76989 12.55517 7821 ft 273 kts 181°
2026-05-03 21:32 51.75103 12.55555 7475 ft 267 kts 181°
2026-05-03 21:32 51.73292 12.55607 7124 ft 255 kts 181°
2026-05-03 21:33 51.71549 12.55664 6785 ft 245 kts 180°
2026-05-03 21:33 51.69862 12.55724 6459 ft 241 kts 180°
2026-05-03 21:33 51.68183 12.55785 6145 ft 244 kts 180°
2026-05-03 21:33 51.66457 12.55850 5859 ft 251 kts 180°
2026-05-03 21:34 51.64695 12.55919 5574 ft 253 kts 181°
2026-05-03 21:34 51.62950 12.55989 5313 ft 250 kts 181°
2026-05-03 21:34 51.61219 12.56061 4976 ft 248 kts 181°
2026-05-03 21:34 51.59493 12.56132 4655 ft 248 kts 181°
2026-05-03 21:35 51.57758 12.56204 4329 ft 249 kts 182°
2026-05-03 21:35 51.56046 12.56276 3988 ft 243 kts 182°
2026-05-03 21:35 51.54366 12.56347 3657 ft 239 kts 183°
2026-05-03 21:35 51.52713 12.56416 3338 ft 236 kts 184°
2026-05-03 21:36 51.51087 12.56484 3078 ft 228 kts 184°
2026-05-03 21:36 51.49522 12.56549 3031 ft 224 kts 184°
2026-05-03 21:36 51.47968 12.56612 3003 ft 223 kts 184°
2026-05-03 21:36 51.46422 12.56675 2987 ft 221 kts 184°
2026-05-03 21:37 51.44943 12.56643 2987 ft 200 kts 199°
2026-05-03 21:37 51.43846 12.55614 2988 ft 176 kts 239°
2026-05-03 21:37 51.43381 12.53854 3016 ft 174 kts 254°
2026-05-03 21:37 51.43015 12.51989 3008 ft 176 kts 258°
2026-05-03 21:38 51.42755 12.50061 3011 ft 177 kts 260°
2026-05-03 21:38 51.42530 12.48203 3003 ft 166 kts 262°
2026-05-03 21:38 51.42389 12.46438 2984 ft 156 kts 265°
2026-05-03 21:38 51.42292 12.44709 2781 ft 156 kts 267°
2026-05-03 21:39 51.42208 12.42982 2585 ft 155 kts 267°
2026-05-03 21:39 51.42129 12.41318 2390 ft 145 kts 267°
2026-05-03 21:39 51.42080 12.40251 2253 ft 139 kts 267°
2026-05-03 21:39 51.41988 12.38264 2018 ft 135 kts 267°
2026-05-03 21:40 51.41941 12.37254 1908 ft 134 kts 267°
2026-05-03 21:40 51.41871 12.35762 1713 ft 135 kts 267°
2026-05-03 21:40 51.41788 12.34275 1589 ft 134 kts 267°
2026-05-03 21:40 51.41717 12.32735 1389 ft 143 kts 267°
2026-05-03 21:41 51.41651 12.31143 1257 ft 146 kts 266°
2026-05-03 21:41 51.41563 12.29512 979 ft 146 kts 267°
2026-05-03 21:41 51.41497 12.27915 735 ft 141 kts 265°
2026-05-03 21:41 51.41431 12.26296 631 ft 144 kts 266°
2026-05-03 21:42 51.41363 12.24829 477 ft 120 kts 266°
2026-05-03 21:42 51.41310 12.23662 477 ft 82 kts 265°
2026-05-03 21:42 51.41276 12.22930 468 ft 61 kts 265°
2026-05-03 21:42 51.41226 12.22604 467 ft 10 kts 210°
2026-05-03 21:43 51.41169 12.22541 465 ft 10 kts 214°
2026-05-03 21:43 51.41097 12.22559 465 ft 13 kts 126°
2026-05-03 21:43 51.41096 12.22730 468 ft 16 kts 83°
2026-05-03 21:43 51.41105 12.22902 468 ft 16 kts 86°
2026-05-03 21:44 51.41112 12.23076 474 ft 16 kts 85°
2026-05-03 21:44 51.41119 12.23230 471 ft 12 kts 86°
2026-05-03 21:44 51.41126 12.23370 478 ft 13 kts 85°
2026-05-03 21:44 51.41134 12.23529 473 ft 16 kts 85°
2026-05-03 21:45 51.41143 12.23726 472 ft 17 kts 85°
2026-05-03 21:45 51.41152 12.23922 473 ft 17 kts 85°
2026-05-03 21:45 51.41161 12.24109 469 ft 17 kts 85°
2026-05-03 21:45 51.41168 12.24248 471 ft 12 kts 85°
2026-05-03 21:46 51.41154 12.24371 471 ft 12 kts 133°
2026-05-03 21:46 51.41092 12.24463 468 ft 13 kts 115°
2026-05-03 21:46 51.41091 12.24601 471 ft 10 kts 102°
2026-05-03 21:46 51.41056 12.24646 469 ft 6 kts 164°
2026-05-03 21:47 51.40988 12.24658 472 ft 12 kts 174°
2026-05-03 21:47 51.40900 12.24666 467 ft 13 kts 188°
2026-05-03 21:47 51.40872 12.24590 470 ft 8 kts 261°
2026-05-03 21:47 51.40868 12.24517 469 ft 3 kts 265°
2026-05-03 21:48 51.40867 12.24507 469 ft 0 kts 265°